Location: Nitra
(0.0000°N, 18.0833°E)
Time: 21:27:00
(UTC+02:00)

A-11 Canister half - Pass Details

Date: 05 April 2023
Orbit: 1526 x 1682 km, 47.3° (Epoch: 08 June)

Event Time Altitude Azimuth Distance (km) Brightness Sun altitude
Rises 12:24:21 0° 245° (WSW) 4,865 11.5 81.1°
Reaches altitude 10° 12:28:01 10° 255° (WSW) 3,896 11.2 81.7°
Maximum altitude 12:36:17 29° 312° (NW) 2,695 10.8 83.0°
Drops below altitude 10° 12:44:40 10° 8° (N) 3,933 11.4 83.8°
Sets 12:48:28 0° 19° (NNE) 4,917 11.7 83.9°
